#timestamp,LO_Frequency,Hit,StdDev 
1512946815.4,286047005.4,N
1512946835.3,286047002.0,N
1512946855.1,286047002.4,N
1512946856.0,286047002.4,N
1512946875.8,286047001.5,N
1512946895.7,286046998.4,N
1512946915.5,286046994.6,N
1512946935.3,286046990.1,N
1512946955.2,286046993.5,N
1512946975.9,286046996.3,N
1512946995.7,286046993.9,N
1512947015.5,286046992.7,N
1512947035.4,286046991.0,N
1512947055.2,286046992.6,N
1512947075.0,286046990.5,N
1512947075.9,286046990.5,N
1512947095.8,286046995.7,N
1512947115.6,286046999.4,N
1512947135.4,286047002.7,N
1512947155.3,286047002.9,N
1512947175.1,286047013.5,N
1512947176.0,286047013.5,N
1512947195.8,286047014.9,N
1512947215.7,286047015.4,N
1512947235.5,286047007.7,N
1512947255.3,286047006.3,N
1512947275.2,286047007.1,N
1512947295.9,286047006.2,N
1512947315.7,286047009.0,N
1512947335.6,286047010.5,N
1512947355.4,286047007.3,N
1512947375.2,286047004.9,N
1512947395.0,286047006.1,N
1512947396.0,286047006.1,N
1512947415.8,286047010.7,N
1512947435.6,286047010.7,N
1512947455.4,286047013.3,N
1512947475.3,286047009.8,N
1512947495.1,286047008.7,N
1512947515.8,286047003.6,N
1512947535.7,286047002.7,N
1512947555.5,286047004.8,N
1512947575.3,286047006.7,N
1512947595.2,286047002.9,N
1512947615.9,286047001.9,N
1512947635.7,286047004.4,N
1512947655.6,286047000.1,N
1512947675.4,286047002.4,N
1512947695.2,286047004.4,N
1512947715.1,286047003.7,N
1512947716.0,286047003.7,N
1512947735.8,286047002.6,N
1512947755.6,286047005.7,N
1512947775.4,286047007.6,N
1512947795.3,286047005.7,N
1512947815.1,286047009.9,Y
1512947835.9,286047004.7,P
1512947855.7,286047007.5,P
1512947875.5,286047008.7,P
1512947895.4,286047005.0,Y
1512947915.2,286046996.4,P
1512947935.0,286046997.8,N
1512947935.9,286046997.8,N
1512947955.7,286046994.9,N
1512947975.6,286046995.7,N
1512947995.4,286046992.1,N
1512948015.2,286046993.8,N
1512948035.1,286046991.9,N
1512948036.0,286046991.9,N
1512948055.8,286046992.3,N
1512948075.6,286046994.1,N
1512948095.5,286046994.1,N
1512948115.3,286046995.5,N
1512948135.1,286046994.9,N
1512948155.9,286046993.6,N
1512948175.7,286046997.1,N
1512948195.5,286046999.9,N
1512948215.3,286046995.5,N
1512948235.2,286046995.0,N
1512948255.0,286046997.3,N
1512948255.9,286046997.3,N
1512948275.7,286046999.9,N
1512948295.6,286047004.7,N
1512948315.4,286047006.5,N
1512948335.2,286047007.5,N
1512948355.1,286047006.2,N
1512948356.0,286047006.2,N
1512948375.8,286047007.7,N
1512948395.6,286047012.7,N
1512948415.5,286047015.3,N
1512948435.3,286047013.5,N
1512948455.1,286047014.8,N
1512948475.9,286047017.0,N
1512948495.7,286047014.9,N
1512948515.5,286047014.0,N
1512948535.4,286047011.6,N
1512948555.6,286047014.4,N
1512948575.4,286047014.7,N
1512948595.2,286047015.3,N
1512948615.1,286047009.7,N
1512948616.0,286047009.7,N
1512948635.8,286047006.3,N
1512948655.6,286047007.6,N
1512948675.5,286047002.4,N
1512948695.3,286047000.9,N
1512948715.1,286046999.3,N
1512948735.9,286046994.9,N
1512948755.7,286046992.6,N
1512948775.5,286046990.6,N
1512948795.4,286046994.2,N
1512948815.2,286046991.9,N
1512948835.0,286046994.0,N
1512948835.9,286046994.0,N
1512948855.7,286046995.3,N
1512948875.6,286046996.9,N
1512948895.4,286046998.6,N
1512948915.2,286046999.8,N
1512948935.1,286046996.5,N
1512948936.0,286046996.5,N
1512948955.8,286047001.4,N
1512948975.6,286047006.9,N
1512948995.5,286047008.0,N
1512949015.3,286047006.1,N
1512949035.1,286047008.9,N
1512949055.9,286047009.1,N
1512949075.7,286047003.4,N
1512949095.5,286046999.1,N
1512949115.4,286046996.1,N
1512949135.2,286046998.8,N
1512949155.0,286047001.0,N
1512949155.9,286047001.0,N
1512949175.8,286047002.4,N
1512949195.6,286047004.4,N
1512949215.4,286047000.4,N
1512949235.3,286046995.2,N
1512949255.1,286046991.4,N
1512949256.0,286046991.4,N
1512949275.8,286046985.6,N
1512949295.6,286046985.0,N
1512949315.5,286046985.0,N
1512949335.3,286046983.1,N
1512949355.1,286046979.3,N
1512949375.9,286046979.4,N
1512949395.7,286046976.3,N
1512949415.5,286046978.0,N
1512949435.4,286046974.2,N
1512949455.2,286046975.5,N
1512949475.0,286046979.6,N
1512949475.9,286046979.6,N
1512949495.8,286046986.2,N
1512949515.6,286046988.1,N
1512949535.4,286046982.2,N
1512949555.3,286046983.1,N
1512949575.1,286046979.2,N
1512949576.0,286046979.2,N
1512949595.8,286046980.2,N
1512949615.7,286046980.5,N
1512949635.5,286046987.4,N
1512949655.3,286046988.2,N
1512949675.1,286046989.9,N
1512949695.9,286046991.5,N
1512949715.7,286046995.5,N
1512949735.5,286046996.8,N
1512949755.4,286046993.6,N
1512949775.2,286046989.7,N
1512949795.0,286046991.2,N
1512949795.9,286046991.2,N
1512949815.8,286046987.9,N
1512949835.6,286046988.0,N
1512949855.4,286046986.3,N
1512949875.3,286046987.8,N
1512949895.1,286046983.5,N
1512949896.0,286046983.5,N
1512949915.8,286046984.3,N
1512949935.7,286046985.8,N
1512949955.5,286046982.1,Y
1512949975.3,286046995.4,P
1512949995.2,286046994.4,N
1512950015.9,286046995.5,N
1512950035.7,286046999.7,N
1512950055.6,286046995.8,N
1512950075.4,286046995.5,N
1512950095.2,286046993.3,N
1512950115.0,286047001.0,N
1512950116.0,286047001.0,N
1512950135.8,286047003.5,N
1512950155.6,286046999.8,N
1512950175.4,286047002.7,N
1512950195.3,286047004.2,N
1512950215.1,286047000.8,N
1512950235.8,286046996.5,N
1512950255.7,286046997.5,N
1512950275.5,286046999.5,N
1512950295.3,286046996.7,N
1512950315.2,286046994.1,N
1512950335.9,286046994.2,N
1512950355.7,286046992.9,N
1512950375.6,286046993.9,N
1512950395.4,286046990.5,N
